Погода в Микулинцах

Украина / Тернопольская область     49°23′42″N   25°36′31″E
темп.,
°C
ветер,
м/с
пор.,
м/с
влажн.,
%
обл.,
%
осадки,
мм/ч
давл.,
гПа
погр.,
м
3 августа, вт
вт300:00+13зсз34925 0.0 101472
03:00+13з35935 0.0 101596
06:00+13зсз349414 0.0 101560
09:00+18зсз34755 0.0 1016412
12:00+21зсз346223 0.2 10161382
15:00+22з345513 1.4 10161656
18:00+22зсз345053 0.0 10161781
21:00+17всв11675 0.0 101611
4 августа, ср
ср400:00+15вюв22755 0.1 101711
03:00+14ююв338126 0.3 101743
06:00+13юв229395 0.8 101734
09:00+17ююв4682100 0.9 1017302
12:00+22ююв456566 0.0 1016616
15:00+25ююв3446100 0.0 10141637
18:00+24ю3556100 0.0 10141100
21:00+19в3581100 1.3 1014143
5 августа, чт
чт500:00+16вюв31094100 2.2 1014214
03:00+17вюв3593100 2.3 1011108
06:00+18юв3482100 0.0 101054
09:00+19вюв368552 0.0 1010182
12:00+24ююв3564100 0.0 1009559
15:00+28ююв344638 0.0 10071447
18:00+23юв4764100 0.1 1005140
21:00+17юв3988100 2.4 1004167
6 августа, пт
пт600:00+17ю410950 0.0 1004231
03:00+17юз6109281 0.0 1004501
06:00+15сз3697100 0.0 1004136
09:00+18зюз238213 0.0 1005379
12:00+22з356736 0.0 10051099
15:00+22зсз5571100 1.7 1005903
18:00+21сз567161 0.8 1005987
21:00+17зсз5893100 1.3 1007321
7 августа, сб
сб700:00+15з4997100 0.0 1008319
03:00+15зсз589496 0.0 1009392
06:00+14зсз489184 0.0 1010385
09:00+16зсз568357 0.0 1011565
12:00+18сз457395 0.1 1012938
15:00+21зсз456046 0.3 10121390
18:00+21сз456217 0.1 1012896
21:00+17св11740 0.1 101311